AAL91 EDDM-KDFW

Flight info

Callsign AAL91
Flight time N/A
Altitude 36000
Route INPUD2N INPUD Y102 UPALA Z109 BAMAS L604 GASKA DCT MASEK DCT BIGGE L604 RELBI L602 TENLI DCT MIMVA DCT GETNO DCT LUTOV DCT PIKIL/M082F370 DCT 57N020W 57N030W 57N040W 56N050W DCT JANJO/N0473F380 DCT 5330N06000W 51N070W 46N080W/N0474F400 DCT KC81Q DCT RBS DCT KK45I DCT FSM DCT RRNET SEEVR4
Aircraft B772/H-SDE2E3FGHIJ5LORVWXY/LB1D1

Departure

Time N/A
Airport Munich Airport (EDDM)

Arrival

Time 2026-05-04 13:05
Airport Dallas Fort Worth International Airport (KDFW)
Time Latitude Longitude Altitude Speed Heading
2026-05-04 09:37 49.53168 -73.34157 37856 ft 465 kts 233°
2026-05-04 09:37 49.51306 -73.38137 37861 ft 463 kts 233°
2026-05-04 09:38 49.47540 -73.46166 37870 ft 462 kts 233°
2026-05-04 09:38 49.43770 -73.54177 37866 ft 462 kts 233°
2026-05-04 09:39 49.39990 -73.62188 37875 ft 463 kts 233°
2026-05-04 09:39 49.36196 -73.70203 37874 ft 464 kts 233°
2026-05-04 09:40 49.32388 -73.78224 37872 ft 465 kts 233°
2026-05-04 09:40 49.28565 -73.86253 37875 ft 467 kts 233°
2026-05-04 09:42 49.13196 -74.18287 37874 ft 467 kts 233°
2026-05-04 09:43 49.09334 -74.26277 37864 ft 467 kts 233°
2026-05-04 09:43 49.05467 -74.34254 37873 ft 467 kts 233°
2026-05-04 09:44 49.01620 -74.42165 37887 ft 467 kts 233°
2026-05-04 09:46 48.86071 -74.73905 37873 ft 468 kts 233°
2026-05-04 09:46 48.82194 -74.81761 37869 ft 467 kts 233°
2026-05-04 09:47 48.78285 -74.89657 37861 ft 468 kts 233°
2026-05-04 09:49 48.62600 -75.21117 37849 ft 468 kts 233°
2026-05-04 09:51 48.48833 -75.48429 37853 ft 467 kts 233°
2026-05-04 09:51 48.44875 -75.56229 37849 ft 467 kts 233°
2026-05-04 09:52 48.40946 -75.63953 37850 ft 467 kts 233°
2026-05-04 09:52 48.36983 -75.71718 37850 ft 468 kts 233°
2026-05-04 09:53 48.33008 -75.79486 37850 ft 468 kts 233°
2026-05-04 09:53 48.29031 -75.87236 37853 ft 468 kts 233°
2026-05-04 09:54 48.25046 -75.94978 37851 ft 468 kts 233°
2026-05-04 09:54 48.21732 -76.01401 37844 ft 468 kts 233°
2026-05-04 09:55 48.17088 -76.10375 37847 ft 468 kts 233°
2026-05-04 09:55 48.13762 -76.16782 37847 ft 468 kts 233°
2026-05-04 09:56 48.09764 -76.24466 37844 ft 467 kts 233°
2026-05-04 09:56 48.05760 -76.32139 37847 ft 468 kts 233°
2026-05-04 09:57 48.01750 -76.39803 37851 ft 468 kts 233°
2026-05-04 09:57 47.97734 -76.47456 37853 ft 468 kts 232°
2026-05-04 09:58 47.93712 -76.55099 37849 ft 468 kts 232°
2026-05-04 09:58 47.89707 -76.62688 37852 ft 468 kts 232°
2026-05-04 10:00 47.73543 -76.93104 37850 ft 468 kts 232°
2026-05-04 10:04 47.45128 -77.45760 37853 ft 467 kts 232°
2026-05-04 10:04 47.41053 -77.53230 37853 ft 467 kts 232°
2026-05-04 10:05 47.36999 -77.60641 37856 ft 466 kts 232°
2026-05-04 10:05 47.32914 -77.68086 37846 ft 466 kts 232°
2026-05-04 10:06 47.28830 -77.75511 37857 ft 466 kts 232°
2026-05-04 10:06 47.24740 -77.82928 37857 ft 466 kts 232°
2026-05-04 10:08 47.10415 -78.08741 37851 ft 465 kts 232°
2026-05-04 10:08 47.06314 -78.16086 37856 ft 465 kts 232°
2026-05-04 10:09 47.02211 -78.23415 37862 ft 465 kts 232°
2026-05-04 10:09 46.98100 -78.30738 37850 ft 465 kts 232°
2026-05-04 10:10 46.93991 -78.38041 37848 ft 465 kts 232°
2026-05-04 10:10 46.89903 -78.45286 37862 ft 465 kts 232°
2026-05-04 10:11 46.85782 -78.52568 37872 ft 465 kts 232°
2026-05-04 10:11 46.81656 -78.59841 37851 ft 464 kts 232°
2026-05-04 10:12 46.77522 -78.67110 37858 ft 464 kts 232°
2026-05-04 10:12 46.73392 -78.74352 37861 ft 464 kts 232°
2026-05-04 10:13 46.69288 -78.81529 37859 ft 464 kts 232°
2026-05-04 10:13 46.65147 -78.88751 37862 ft 464 kts 232°
2026-05-04 10:14 46.61008 -78.95952 37857 ft 464 kts 232°
2026-05-04 10:16 46.44436 -79.24596 37856 ft 463 kts 232°
2026-05-04 10:16 46.40277 -79.31737 37832 ft 463 kts 232°
2026-05-04 10:17 46.36121 -79.38857 37833 ft 463 kts 231°
2026-05-04 10:19 46.19472 -79.67193 37852 ft 462 kts 231°
2026-05-04 10:19 46.15297 -79.74256 37867 ft 462 kts 231°
2026-05-04 10:20 46.11123 -79.81299 37858 ft 462 kts 231°
2026-05-04 10:20 46.06945 -79.88332 37871 ft 461 kts 231°
2026-05-04 10:21 46.02772 -79.95347 37874 ft 461 kts 231°
2026-05-04 10:21 45.98623 -80.02307 37874 ft 461 kts 232°
2026-05-04 10:22 45.92437 -80.12896 37868 ft 461 kts 232°
2026-05-04 10:23 45.88322 -80.19955 37880 ft 460 kts 232°
2026-05-04 10:25 45.71805 -80.48029 37885 ft 461 kts 232°
2026-05-04 10:25 45.67652 -80.55040 37885 ft 461 kts 232°
2026-05-04 10:26 45.63500 -80.62033 37887 ft 461 kts 232°
2026-05-04 10:26 45.59344 -80.69016 37884 ft 461 kts 232°
2026-05-04 10:27 45.55187 -80.75982 37880 ft 460 kts 232°
2026-05-04 10:27 45.51061 -80.82879 37875 ft 460 kts 232°
2026-05-04 10:28 45.46912 -80.89798 37873 ft 459 kts 232°
2026-05-04 10:28 45.42752 -80.96718 37873 ft 459 kts 232°
2026-05-04 10:29 45.38588 -81.03626 37865 ft 459 kts 232°
2026-05-04 10:29 45.34417 -81.10529 37869 ft 460 kts 232°
2026-05-04 10:30 45.30242 -81.17424 37858 ft 460 kts 232°
2026-05-04 10:30 45.26086 -81.24269 37860 ft 460 kts 232°
2026-05-04 10:31 45.21905 -81.31138 37849 ft 459 kts 232°
2026-05-04 10:32 45.07265 -81.55060 37863 ft 459 kts 232°
2026-05-04 10:33 45.03069 -81.61877 37854 ft 459 kts 232°
2026-05-04 10:33 44.98870 -81.68684 37862 ft 458 kts 232°
2026-05-04 10:34 44.94695 -81.75437 37854 ft 458 kts 232°
2026-05-04 10:34 44.90497 -81.82209 37856 ft 458 kts 232°
2026-05-04 10:35 44.86288 -81.88982 37855 ft 458 kts 232°
2026-05-04 10:35 44.82083 -81.95734 37861 ft 458 kts 232°
2026-05-04 10:36 44.77871 -82.02481 37856 ft 459 kts 232°
2026-05-04 10:36 44.73653 -82.09221 37860 ft 459 kts 232°
2026-05-04 10:37 44.69428 -82.15955 37857 ft 459 kts 232°
2026-05-04 10:37 44.65225 -82.22638 37838 ft 459 kts 232°
2026-05-04 10:39 44.50400 -82.46087 37851 ft 459 kts 231°
2026-05-04 10:40 44.46157 -82.52762 37850 ft 459 kts 231°
2026-05-04 10:40 44.41908 -82.59431 37849 ft 458 kts 231°
2026-05-04 10:41 44.37659 -82.66084 37845 ft 458 kts 231°
2026-05-04 10:41 44.34126 -82.71604 37845 ft 458 kts 231°
2026-05-04 10:42 44.29873 -82.78236 37842 ft 457 kts 231°
2026-05-04 10:42 44.25619 -82.84853 37853 ft 457 kts 231°
2026-05-04 10:43 44.21386 -82.91422 37850 ft 458 kts 231°
2026-05-04 10:45 44.04314 -83.17761 37866 ft 458 kts 231°
2026-05-04 10:45 44.00060 -83.24287 37862 ft 458 kts 231°
2026-05-04 10:46 43.95778 -83.30839 37871 ft 458 kts 231°
2026-05-04 10:46 43.91490 -83.37385 37874 ft 458 kts 231°
2026-05-04 10:47 43.87202 -83.43918 37878 ft 458 kts 231°
2026-05-04 10:47 43.82908 -83.50445 37861 ft 457 kts 231°
2026-05-04 10:49 43.65735 -83.76401 37869 ft 458 kts 231°
2026-05-04 10:50 43.61446 -83.82847 37890 ft 458 kts 231°
2026-05-04 10:52 43.44251 -84.08726 37863 ft 457 kts 232°
2026-05-04 10:52 43.40006 -84.15235 37877 ft 456 kts 232°
2026-05-04 10:54 43.22992 -84.41115 37895 ft 456 kts 232°
2026-05-04 10:56 43.05922 -84.66829 37926 ft 457 kts 232°
2026-05-04 10:57 43.01636 -84.73248 37933 ft 456 kts 232°
2026-05-04 10:57 42.97353 -84.79649 37933 ft 456 kts 232°
2026-05-04 10:58 42.93067 -84.86041 37934 ft 455 kts 232°
2026-05-04 10:58 42.88788 -84.92408 37928 ft 454 kts 232°
2026-05-04 10:59 42.84541 -84.98715 37933 ft 454 kts 232°
2026-05-04 10:59 42.80263 -85.05051 37933 ft 454 kts 232°
2026-05-04 11:00 42.75986 -85.11375 37935 ft 453 kts 232°
2026-05-04 11:02 42.58870 -85.36540 37956 ft 453 kts 232°
2026-05-04 11:05 42.26680 -85.83279 37966 ft 453 kts 232°
2026-05-04 11:06 42.22363 -85.89490 37980 ft 453 kts 232°
2026-05-04 11:06 42.18050 -85.95682 37993 ft 452 kts 232°
2026-05-04 11:10 41.87832 -86.38700 38001 ft 453 kts 231°
2026-05-04 11:12 41.70450 -86.63157 38011 ft 452 kts 231°
2026-05-04 11:12 41.66094 -86.69255 38020 ft 453 kts 231°
2026-05-04 11:13 41.61730 -86.75351 38020 ft 453 kts 231°
2026-05-04 11:13 41.57400 -86.81387 38017 ft 453 kts 231°
2026-05-04 11:16 41.35594 -87.11597 38022 ft 452 kts 231°
2026-05-04 11:16 41.31219 -87.17620 38003 ft 452 kts 231°
2026-05-04 11:17 41.26846 -87.23628 38010 ft 451 kts 231°
2026-05-04 11:19 41.09412 -87.47459 37962 ft 450 kts 231°
2026-05-04 11:19 41.05050 -87.53391 37984 ft 449 kts 231°
2026-05-04 11:20 41.00692 -87.59306 37986 ft 448 kts 231°
2026-05-04 11:20 40.96330 -87.65217 37987 ft 449 kts 231°
2026-05-04 11:22 40.78890 -87.88726 37983 ft 448 kts 231°
2026-05-04 11:23 40.74524 -87.94582 37994 ft 447 kts 231°
2026-05-04 11:25 40.59290 -88.14939 38002 ft 446 kts 231°
2026-05-04 11:25 40.54893 -88.20775 38145 ft 452 kts 231°
2026-05-04 11:26 40.50451 -88.26647 38693 ft 453 kts 231°
2026-05-04 11:27 40.34967 -88.47061 39985 ft 453 kts 230°
2026-05-04 11:28 40.30550 -88.52861 39980 ft 450 kts 230°
2026-05-04 11:28 40.26126 -88.58656 39989 ft 448 kts 230°
2026-05-04 11:29 40.21718 -88.64422 39986 ft 446 kts 230°
2026-05-04 11:29 40.18067 -88.69191 39996 ft 445 kts 230°
2026-05-04 11:33 39.87401 -89.08939 40001 ft 443 kts 230°
2026-05-04 11:33 39.83009 -89.14588 40000 ft 443 kts 230°
2026-05-04 11:34 39.78627 -89.20214 39979 ft 442 kts 231°
2026-05-04 11:34 39.74255 -89.25815 39990 ft 441 kts 230°
2026-05-04 11:35 39.69906 -89.31377 40005 ft 441 kts 230°
2026-05-04 11:35 39.65531 -89.36964 40004 ft 441 kts 230°
2026-05-04 11:36 39.61146 -89.42550 39990 ft 442 kts 230°
2026-05-04 11:36 39.56753 -89.48137 39983 ft 442 kts 230°
2026-05-04 11:37 39.52362 -89.53711 39992 ft 441 kts 230°
2026-05-04 11:37 39.47973 -89.59271 40003 ft 441 kts 230°
2026-05-04 11:38 39.43616 -89.64781 40005 ft 440 kts 230°
2026-05-04 11:38 39.39224 -89.70326 40011 ft 440 kts 230°
2026-05-04 11:39 39.34837 -89.75853 39982 ft 440 kts 230°
2026-05-04 11:41 39.19513 -89.95082 40023 ft 440 kts 230°
2026-05-04 11:41 39.15113 -90.00581 39998 ft 440 kts 230°
2026-05-04 11:42 39.10708 -90.06075 39990 ft 440 kts 230°
2026-05-04 11:42 39.06331 -90.11525 40009 ft 441 kts 230°
2026-05-04 11:43 39.01914 -90.17015 40014 ft 442 kts 230°
2026-05-04 11:43 38.97481 -90.22514 40009 ft 443 kts 230°
2026-05-04 11:44 38.93037 -90.28016 39983 ft 443 kts 230°
2026-05-04 11:44 38.88598 -90.33501 39962 ft 443 kts 230°
2026-05-04 11:45 38.84153 -90.38984 39960 ft 443 kts 230°
2026-05-04 11:45 38.79707 -90.44460 39988 ft 443 kts 230°
2026-05-04 11:46 38.75277 -90.49906 39993 ft 444 kts 230°
2026-05-04 11:46 38.70809 -90.55389 39998 ft 445 kts 230°
2026-05-04 11:47 38.66335 -90.60868 39982 ft 445 kts 230°
2026-05-04 11:47 38.61853 -90.66346 39974 ft 445 kts 230°
2026-05-04 11:48 38.57369 -90.71818 39991 ft 445 kts 230°
2026-05-04 11:48 38.52912 -90.77246 39985 ft 445 kts 230°
2026-05-04 11:49 38.48426 -90.82700 40006 ft 445 kts 230°
2026-05-04 11:49 38.43945 -90.88140 40011 ft 445 kts 230°
2026-05-04 11:50 38.39458 -90.93575 40021 ft 444 kts 230°
2026-05-04 11:50 38.34970 -90.99002 40039 ft 444 kts 230°
2026-05-04 11:51 38.30484 -91.04418 40041 ft 444 kts 230°
2026-05-04 11:51 38.26019 -91.09800 40039 ft 444 kts 230°
2026-05-04 11:52 38.21520 -91.15211 40021 ft 444 kts 230°
2026-05-04 11:52 38.17023 -91.20609 40024 ft 444 kts 230°
2026-05-04 11:53 38.12558 -91.25962 40026 ft 444 kts 230°
2026-05-04 11:53 38.08067 -91.31336 40042 ft 444 kts 230°
2026-05-04 11:55 37.90024 -91.52829 40031 ft 444 kts 230°
2026-05-04 11:56 37.85543 -91.58144 40063 ft 444 kts 230°
2026-05-04 11:56 37.81020 -91.63499 40061 ft 445 kts 230°
2026-05-04 11:57 37.76496 -91.68847 40046 ft 445 kts 230°
2026-05-04 11:57 37.71967 -91.74191 40052 ft 445 kts 230°
2026-05-04 11:58 37.67441 -91.79521 40055 ft 445 kts 229°
2026-05-04 11:58 37.62909 -91.84851 40049 ft 445 kts 229°
2026-05-04 11:59 37.58404 -91.90143 40035 ft 445 kts 229°
2026-05-04 11:59 37.53864 -91.95469 40032 ft 445 kts 229°
2026-05-04 12:00 37.49318 -92.00779 40039 ft 446 kts 229°
2026-05-04 12:00 37.44666 -92.06000 40013 ft 448 kts 228°
2026-05-04 12:01 37.39986 -92.11164 40054 ft 448 kts 228°
2026-05-04 12:02 37.23590 -92.29324 40048 ft 450 kts 228°
2026-05-04 12:03 37.18888 -92.34521 40061 ft 449 kts 228°
2026-05-04 12:03 37.14221 -92.39672 40067 ft 450 kts 228°
2026-05-04 12:04 37.09516 -92.44855 40066 ft 450 kts 228°
2026-05-04 12:04 37.04797 -92.50044 40072 ft 450 kts 227°
2026-05-04 12:05 37.00083 -92.55221 40070 ft 450 kts 227°
2026-05-04 12:05 36.95395 -92.60358 40045 ft 450 kts 227°
2026-05-04 12:06 36.90676 -92.65520 40064 ft 450 kts 227°
2026-05-04 12:06 36.85956 -92.70676 40058 ft 450 kts 228°
2026-05-04 12:07 36.81235 -92.75823 40067 ft 451 kts 227°
2026-05-04 12:07 36.76541 -92.80933 40068 ft 451 kts 227°
2026-05-04 12:08 36.71805 -92.86079 40064 ft 451 kts 227°
2026-05-04 12:08 36.67071 -92.91215 40062 ft 452 kts 227°
2026-05-04 12:09 36.62318 -92.96362 40063 ft 452 kts 227°
2026-05-04 12:09 36.57555 -93.01513 40061 ft 452 kts 227°
2026-05-04 12:10 36.52826 -93.06617 40082 ft 452 kts 227°
2026-05-04 12:10 36.48075 -93.11734 40104 ft 452 kts 227°
2026-05-04 12:11 36.43318 -93.16853 40094 ft 452 kts 227°
2026-05-04 12:11 36.38556 -93.21968 40084 ft 453 kts 227°
2026-05-04 12:12 36.33780 -93.27088 40095 ft 453 kts 227°
2026-05-04 12:12 36.29003 -93.32200 40087 ft 454 kts 227°
2026-05-04 12:14 36.09913 -93.52545 40074 ft 453 kts 227°
2026-05-04 12:15 36.05131 -93.57619 40057 ft 453 kts 227°
2026-05-04 12:15 36.00352 -93.62684 40071 ft 453 kts 227°
2026-05-04 12:16 35.95567 -93.67749 40081 ft 453 kts 227°
2026-05-04 12:16 35.90765 -93.72821 40078 ft 454 kts 227°
2026-05-04 12:17 35.85997 -93.77848 40090 ft 454 kts 227°
2026-05-04 12:17 35.81189 -93.82908 40067 ft 454 kts 227°
2026-05-04 12:18 35.76391 -93.87948 40082 ft 452 kts 227°
2026-05-04 12:18 35.72407 -93.92131 40085 ft 452 kts 227°
2026-05-04 12:19 35.66832 -93.97972 40073 ft 451 kts 227°
2026-05-04 12:19 35.62852 -94.02136 40084 ft 452 kts 227°
2026-05-04 12:20 35.58061 -94.07143 40087 ft 452 kts 227°
2026-05-04 12:20 35.53263 -94.12147 40089 ft 453 kts 227°
2026-05-04 12:21 35.48454 -94.17156 40089 ft 453 kts 227°
2026-05-04 12:21 35.43653 -94.22152 40087 ft 452 kts 227°
2026-05-04 12:22 35.38872 -94.27115 40087 ft 452 kts 227°
2026-05-04 12:22 35.34142 -94.32170 40087 ft 450 kts 229°
2026-05-04 12:23 35.29458 -94.37288 40096 ft 451 kts 229°
2026-05-04 12:23 35.24768 -94.42397 40094 ft 451 kts 228°
2026-05-04 12:24 35.20095 -94.47460 40084 ft 451 kts 228°
2026-05-04 12:24 35.15395 -94.52539 40064 ft 451 kts 228°
2026-05-04 12:25 35.10694 -94.57609 40060 ft 451 kts 229°
2026-05-04 12:25 35.05989 -94.62676 40076 ft 451 kts 228°
2026-05-04 12:26 35.01279 -94.67742 40076 ft 451 kts 228°
2026-05-04 12:26 34.96568 -94.72802 40087 ft 451 kts 228°
2026-05-04 12:27 34.91857 -94.77856 40083 ft 451 kts 228°
2026-05-04 12:27 34.87142 -94.82908 40074 ft 452 kts 229°
2026-05-04 12:28 34.82447 -94.87926 40086 ft 452 kts 228°
2026-05-04 12:28 34.77647 -94.92901 40082 ft 454 kts 227°
2026-05-04 12:29 34.72796 -94.97817 40081 ft 452 kts 227°
2026-05-04 12:29 34.68037 -95.02645 39844 ft 439 kts 227°
2026-05-04 12:30 34.65713 -95.05008 39544 ft 434 kts 228°
2026-05-04 12:30 34.63411 -95.07356 39168 ft 430 kts 228°
2026-05-04 12:30 34.61129 -95.09683 38775 ft 427 kts 228°
2026-05-04 12:30 34.58860 -95.11996 38320 ft 424 kts 228°
2026-05-04 12:31 34.56612 -95.14285 37909 ft 420 kts 228°
2026-05-04 12:31 34.54385 -95.16552 37508 ft 416 kts 228°
2026-05-04 12:31 34.52179 -95.18797 37124 ft 412 kts 228°
2026-05-04 12:31 34.49988 -95.21022 36739 ft 408 kts 228°
2026-05-04 12:32 34.47818 -95.23221 36358 ft 404 kts 227°
2026-05-04 12:32 34.43547 -95.27531 35580 ft 398 kts 227°
2026-05-04 12:32 34.41419 -95.29671 35192 ft 396 kts 227°
2026-05-04 12:33 34.39307 -95.31796 34801 ft 394 kts 227°
2026-05-04 12:33 34.37202 -95.33914 34399 ft 392 kts 227°
2026-05-04 12:33 34.35112 -95.36018 33997 ft 390 kts 227°
2026-05-04 12:33 34.33032 -95.38110 33559 ft 388 kts 227°
2026-05-04 12:34 34.30963 -95.40191 33157 ft 386 kts 226°
2026-05-04 12:34 34.28910 -95.42256 32755 ft 383 kts 227°
2026-05-04 12:34 34.26862 -95.44316 32370 ft 381 kts 226°
2026-05-04 12:34 34.24847 -95.46339 31982 ft 379 kts 226°
2026-05-04 12:35 34.22821 -95.48369 31587 ft 378 kts 226°
2026-05-04 12:35 34.20797 -95.50394 31212 ft 376 kts 226°
2026-05-04 12:35 34.18782 -95.52408 30830 ft 375 kts 226°
2026-05-04 12:35 34.16767 -95.54419 30460 ft 374 kts 226°
2026-05-04 12:36 34.14767 -95.56417 30062 ft 373 kts 225°
2026-05-04 12:36 34.12788 -95.58393 29621 ft 372 kts 225°
2026-05-04 12:36 34.10798 -95.60377 29187 ft 371 kts 225°
2026-05-04 12:36 34.08780 -95.62387 28765 ft 370 kts 225°
2026-05-04 12:37 34.06824 -95.64331 28350 ft 369 kts 225°
2026-05-04 12:37 34.04845 -95.66296 27929 ft 368 kts 225°
2026-05-04 12:37 34.02869 -95.68258 27529 ft 368 kts 225°
2026-05-04 12:37 34.00896 -95.70218 27117 ft 367 kts 224°
2026-05-04 12:38 33.98919 -95.72179 26713 ft 366 kts 224°
2026-05-04 12:38 33.96952 -95.74128 26319 ft 366 kts 224°
2026-05-04 12:38 33.94985 -95.76082 25918 ft 366 kts 224°
2026-05-04 12:38 33.93029 -95.78039 25519 ft 365 kts 224°
2026-05-04 12:39 33.91073 -95.79999 25121 ft 366 kts 224°
2026-05-04 12:39 33.89115 -95.81964 24715 ft 366 kts 224°
2026-05-04 12:39 33.87179 -95.83903 24318 ft 367 kts 224°
2026-05-04 12:39 33.85211 -95.85869 23911 ft 368 kts 223°
2026-05-04 12:40 33.83234 -95.87841 23459 ft 369 kts 223°
2026-05-04 12:40 33.81254 -95.89804 22993 ft 369 kts 223°
2026-05-04 12:40 33.79269 -95.91760 22563 ft 368 kts 223°
2026-05-04 12:40 33.77290 -95.93707 22157 ft 367 kts 223°
2026-05-04 12:41 33.75310 -95.95655 21753 ft 366 kts 223°
2026-05-04 12:41 33.73368 -95.97568 21351 ft 366 kts 223°
2026-05-04 12:41 33.71403 -95.99504 20936 ft 365 kts 222°
2026-05-04 12:41 33.69436 -96.01441 20536 ft 365 kts 222°
2026-05-04 12:42 33.67469 -96.03377 20128 ft 366 kts 222°
2026-05-04 12:42 33.65501 -96.05313 19721 ft 366 kts 222°
2026-05-04 12:42 33.63534 -96.07248 19303 ft 367 kts 222°
2026-05-04 12:42 33.61557 -96.09191 18883 ft 367 kts 222°
2026-05-04 12:43 33.59574 -96.11140 18446 ft 368 kts 221°
2026-05-04 12:43 33.57589 -96.13090 17969 ft 369 kts 221°
2026-05-04 12:43 33.55598 -96.15042 17510 ft 369 kts 222°
2026-05-04 12:43 33.53612 -96.16989 17075 ft 368 kts 221°
2026-05-04 12:44 33.51630 -96.18934 16640 ft 368 kts 221°
2026-05-04 12:44 33.49652 -96.20872 16210 ft 367 kts 221°
2026-05-04 12:44 33.47679 -96.22806 15778 ft 366 kts 220°
2026-05-04 12:44 33.45700 -96.24739 15354 ft 366 kts 220°
2026-05-04 12:45 33.43782 -96.26730 14972 ft 362 kts 226°
2026-05-04 12:45 33.42113 -96.28945 14736 ft 354 kts 231°
2026-05-04 12:45 33.40570 -96.31184 14374 ft 349 kts 231°
2026-05-04 12:45 33.39003 -96.33461 13740 ft 354 kts 230°
2026-05-04 12:46 33.37441 -96.35674 13573 ft 343 kts 230°
2026-05-04 12:46 33.35867 -96.37860 12873 ft 349 kts 229°
2026-05-04 12:46 33.34302 -96.40011 12735 ft 336 kts 229°
2026-05-04 12:46 33.32825 -96.42132 12023 ft 333 kts 236°
2026-05-04 12:47 33.31904 -96.44612 11574 ft 322 kts 253°
2026-05-04 12:47 33.31285 -96.47142 11423 ft 311 kts 251°
2026-05-04 12:47 33.30626 -96.49544 11309 ft 300 kts 251°
2026-05-04 12:47 33.29967 -96.51880 11080 ft 293 kts 250°
2026-05-04 12:48 33.29320 -96.54158 10881 ft 285 kts 250°
2026-05-04 12:48 33.28718 -96.56382 10653 ft 276 kts 256°
2026-05-04 12:48 33.28466 -96.58636 10453 ft 271 kts 264°
2026-05-04 12:48 33.28380 -96.60862 10167 ft 269 kts 266°
2026-05-04 12:49 33.28318 -96.63094 9810 ft 269 kts 265°
2026-05-04 12:49 33.28247 -96.65326 9415 ft 270 kts 265°
2026-05-04 12:49 33.28163 -96.67571 9056 ft 269 kts 265°
2026-05-04 12:49 33.28076 -96.69761 8845 ft 264 kts 265°
2026-05-04 12:50 33.27986 -96.71927 8625 ft 258 kts 264°
2026-05-04 12:50 33.27891 -96.74072 8292 ft 258 kts 264°
2026-05-04 12:50 33.27794 -96.76190 8007 ft 255 kts 264°
2026-05-04 12:50 33.27694 -96.78317 7688 ft 255 kts 264°
2026-05-04 12:51 33.27594 -96.80430 7364 ft 256 kts 264°
2026-05-04 12:51 33.27493 -96.82549 7108 ft 252 kts 264°
2026-05-04 12:51 33.27390 -96.84622 6935 ft 246 kts 263°
2026-05-04 12:51 33.27252 -96.86652 6683 ft 244 kts 262°
2026-05-04 12:52 33.27093 -96.88652 6425 ft 240 kts 261°
2026-05-04 12:52 33.26919 -96.90637 6101 ft 242 kts 262°
2026-05-04 12:52 33.26753 -96.92622 5872 ft 238 kts 260°
2026-05-04 12:52 33.26567 -96.94554 5610 ft 237 kts 260°
2026-05-04 12:53 33.26391 -96.96511 5320 ft 236 kts 259°
2026-05-04 12:53 33.26204 -96.98443 5149 ft 233 kts 259°
2026-05-04 12:53 33.25992 -97.00358 5051 ft 234 kts 260°
2026-05-04 12:53 33.25833 -97.02307 4943 ft 236 kts 262°
2026-05-04 12:54 33.25680 -97.04264 4824 ft 236 kts 261°
2026-05-04 12:54 33.25514 -97.06214 4733 ft 235 kts 260°
2026-05-04 12:54 33.25351 -97.08170 4650 ft 239 kts 261°
2026-05-04 12:54 33.25183 -97.10149 4556 ft 239 kts 260°
2026-05-04 12:55 33.24989 -97.12114 4495 ft 238 kts 261°
2026-05-04 12:55 33.24865 -97.14079 4412 ft 236 kts 264°
2026-05-04 12:55 33.24779 -97.15995 4360 ft 232 kts 262°
2026-05-04 12:55 33.24608 -97.17896 4317 ft 229 kts 259°
2026-05-04 12:56 33.24436 -97.19813 4293 ft 235 kts 262°
2026-05-04 12:56 33.24303 -97.21772 4226 ft 237 kts 261°
2026-05-04 12:56 33.24169 -97.23707 4192 ft 233 kts 262°
2026-05-04 12:56 33.23871 -97.25566 4169 ft 227 kts 239°
2026-05-04 12:57 33.22761 -97.26877 4166 ft 232 kts 207°
2026-05-04 12:57 33.21191 -97.27355 4100 ft 234 kts 185°
2026-05-04 12:57 33.19578 -97.27124 4007 ft 235 kts 166°
2026-05-04 12:57 33.18036 -97.26444 3936 ft 236 kts 161°
2026-05-04 12:58 33.16526 -97.25697 3866 ft 235 kts 161°
2026-05-04 12:58 33.15016 -97.24949 3815 ft 234 kts 162°
2026-05-04 12:58 33.13512 -97.24213 3754 ft 232 kts 161°
2026-05-04 12:58 33.12032 -97.23493 3609 ft 224 kts 162°
2026-05-04 12:59 33.10648 -97.22825 3544 ft 211 kts 162°
2026-05-04 12:59 33.09307 -97.22185 3460 ft 206 kts 162°
2026-05-04 12:59 33.07987 -97.21558 3400 ft 201 kts 163°
2026-05-04 12:59 33.06706 -97.20952 3338 ft 194 kts 162°
2026-05-04 13:00 33.05481 -97.20372 3245 ft 183 kts 163°
2026-05-04 13:00 33.04334 -97.19829 3168 ft 172 kts 165°
2026-05-04 13:00 33.03260 -97.19320 3081 ft 160 kts 163°
2026-05-04 13:00 33.02263 -97.18870 3021 ft 153 kts 164°
2026-05-04 13:01 33.01263 -97.18393 3010 ft 152 kts 163°
2026-05-04 13:01 33.00337 -97.17820 3017 ft 149 kts 151°
2026-05-04 13:01 32.99512 -97.17091 2776 ft 147 kts 148°
2026-05-04 13:01 32.98740 -97.16352 2631 ft 140 kts 146°
2026-05-04 13:02 32.98025 -97.15627 2404 ft 129 kts 146°
2026-05-04 13:02 32.97341 -97.14929 2314 ft 132 kts 147°
2026-05-04 13:02 32.96640 -97.14199 2098 ft 132 kts 147°
2026-05-04 13:02 32.95956 -97.13494 1934 ft 131 kts 147°
2026-05-04 13:03 32.95253 -97.12770 1739 ft 135 kts 144°
2026-05-04 13:03 32.94556 -97.12046 1559 ft 128 kts 145°
2026-05-04 13:03 32.93878 -97.11331 1388 ft 133 kts 142°
2026-05-04 13:03 32.93175 -97.10566 1184 ft 138 kts 142°
2026-05-04 13:04 32.92463 -97.09840 1009 ft 136 kts 142°
2026-05-04 13:04 32.91742 -97.09088 879 ft 139 kts 145°
2026-05-04 13:04 32.91009 -97.08349 672 ft 141 kts 144°
2026-05-04 13:04 32.90291 -97.07631 631 ft 122 kts 139°
2026-05-04 13:05 32.89769 -97.07094 628 ft 78 kts 140°
2026-05-04 13:05 32.89421 -97.06737 629 ft 58 kts 139°
2026-05-04 13:05 32.89206 -97.06512 634 ft 30 kts 139°
2026-05-04 13:05 32.89083 -97.06370 630 ft 24 kts 108°
2026-05-04 13:06 32.89096 -97.06266 628 ft 17 kts 63°
2026-05-04 13:06 32.89171 -97.06153 627 ft 16 kts 49°
2026-05-04 13:06 32.89150 -97.06038 627 ft 16 kts 138°
2026-05-04 13:06 32.89063 -97.05946 630 ft 18 kts 134°
2026-05-04 13:07 32.89045 -97.05800 620 ft 18 kts 88°
2026-05-04 13:07 32.89046 -97.05647 620 ft 18 kts 90°
2026-05-04 13:07 32.89045 -97.05494 623 ft 18 kts 90°
2026-05-04 13:07 32.89045 -97.05342 624 ft 18 kts 90°
2026-05-04 13:08 32.89044 -97.05189 620 ft 18 kts 91°
2026-05-04 13:08 32.89042 -97.05036 629 ft 18 kts 91°
2026-05-04 13:08 32.89041 -97.04883 629 ft 18 kts 90°
2026-05-04 13:08 32.89071 -97.04740 629 ft 18 kts 49°
2026-05-04 13:09 32.89185 -97.04674 627 ft 18 kts 12°
2026-05-04 13:09 32.89312 -97.04671 626 ft 18 kts 359°
2026-05-04 13:09 32.89440 -97.04673 626 ft 18 kts
2026-05-04 13:09 32.89564 -97.04670 626 ft 17 kts
2026-05-04 13:10 32.89685 -97.04668 626 ft 17 kts
2026-05-04 13:10 32.89759 -97.04634 631 ft 11 kts 69°
2026-05-04 13:10 32.89765 -97.04579 620 ft 0 kts 87°